Location: Four Corners
(38.2757°N, 122.4608°W)
Time: 08:39:51
(UTC+00:00)

USA 116 - Pass Details

Date: 08 December 2019
Orbit: 405 x 834 km, 97.9° (Epoch: 18 November)

Event Time Altitude Azimuth Distance (km) Brightness Sun altitude
Exits shadow 02:28:48 10° 15° (NNE) 2,383 6.7 -19.0°
Maximum altitude 02:34:09 78° 102° (ESE) 808 4.3 -20.0°
Drops below altitude 10° 02:39:13 10° 189° (S) 2,267 7.1 -21.0°
Sets 02:41:26 0° 190° (S) 3,142 7.9 -21.4°
